Погода в Кубачах

Россия / Республика Дагестан     42°05′10″N   47°36′14″E
темп.,
°C
ветер,
м/с
пор.,
м/с
влажн.,
%
обл.,
%
осадки,
мм/ч
давл.,
гПа
погр.,
м
14 мая, пт
пт1400:00+10ююз43502 0.0 101935
03:00+9ююз43375 0.0 101932
06:00+12ююз33490 0.0 101944
09:00+18в33320 0.0 10161650
12:00+18всв65479 0.0 10161149
15:00+9юз5683100 4.9 1020329
18:00+11ююз2374100 5.6 101957
21:00+10ююз2271100 5.6 101912
15 мая, сб
сб1500:00+9ююз337314 0.0 101822
03:00+8ююз43730 0.0 101830
06:00+11ююз33660 0.0 101850
09:00+16св32460 0.0 1016954
12:00+18св43523 0.0 10151490
15:00+16всв32604 2.5 1016829
18:00+14всв22721 1.0 101659
21:00+10ююз327589 1.1 101816
16 мая, вс
вс1600:00+9ююз33715 0.0 101723
03:00+8ююз33725 0.0 101724
06:00+11ююз33705 0.0 101665
09:00+17в33440 0.0 10131236
12:00+18всв55481 0.0 10111261
15:00+17всв54492 0.0 1011842
18:00+14в22650 0.0 101284
21:00+10ююз44530 0.0 101445
17 мая, пн
пн1700:00+9юз44434 0.0 101341
03:00+9ююз434128 0.0 101233
06:00+11юз44525 0.0 101155
09:00+20св13344 0.0 10081202
12:00+22ссв13334 0.0 10072092
15:00+22з24272 0.0 10072436
18:00+18ююз11451 0.0 100812
21:00+12юз543731 0.0 101342
18 мая, вт
вт1800:00+13юз4433100 0.0 101145
03:00+13ююз333394 0.0 101028
06:00+14ююз224999 0.0 101132
09:00+16св3245100 0.0 1010654
12:00+14всв227198 2.5 1011199
15:00+12всв449097 6.7 1011389
18:00+11всв339798 4.1 1014279
21:00+10всв1297100 7.3 1015112